Weather in Juárez

Mexico     25°39′25″N   100°08′05″W
temp.,
°C
wind,
m/s
gust,
m/s
humid.,
%
clouds,
%
prec.,
mm/h
press.,
hPa
HPBL,
m
10 april, sat
sat1001:00+27sw111874 0.0 100517
04:00+26nw12190 0.0 100415
07:00+25w22170 0.0 100616
10:00+29n56140 0.0 1009769
13:00+31n65180 0.0 10091305
16:00+32n53190 0.0 10061977
19:00+31e45240 0.0 10051463
22:00+25ese24340 0.0 1008258
11 april, sun
sun1101:00+24ese57402 0.0 1007292
04:00+20se248279 0.0 1008287
07:00+19e128874 0.0 1008260
10:00+21e227999 0.1 1009528
13:00+26e32555 0.1 1007984
16:00+30e223825 0.0 10031312
19:00+30ese4438100 0.0 10031214
22:00+26se3653100 0.0 1005352
12 april, mon
mon1201:00+24se3562100 0.0 1005258
04:00+22e2374100 0.0 1005168
07:00+20e1284100 0.0 1006120
10:00+23e127168 0.0 1007469
13:00+30ese224446 0.0 10061160
16:00+34e42310 0.0 10021726
19:00+33e66350 0.0 10021708
22:00+29ese59520 0.0 1005772
13 april, tue
tue1301:00+25e35705 0.0 1007379
04:00+22se238260 0.1 1009347
07:00+22ese228252 0.1 1009299
10:00+24e117054 0.0 1011610
13:00+28ene225442 0.0 10101232
16:00+31e434419 0.0 10071715
19:00+29e554937 0.0 10071507
22:00+26e12610 0.0 1009349
14 april, wed
wed1401:00+25se236662 0.0 1010266
04:00+24ene127172 0.0 1009366
07:00+23e227998 0.0 1010379
10:00+23e2283100 0.1 1012512
13:00+26ene116675 0.3 1012831
16:00+30ene2246100 0.0 10091776
19:00+28e4556100 0.0 10091136
22:00+26ese346489 0.0 1011518